Date,TemperatureHighF,TemperatureAvgF,TemperatureLowF,DewpointHighF,DewpointAvgF,DewpointLowF,HumidityHigh,HumidityAvg,HumidityLow,PressureMaxIn,PressureMinIn,WindSpeedMaxMPH,WindSpeedAvgMPH,GustSpeedMaxMPH,PrecipitationSumIn
2013-1-1,62.3,53.1,41.2,34.5,25.5,12.3,76,39,18,29.92,29.78,19,4,19,0.00
2013-1-2,63.0,54.1,42.1,43.8,26.5,11.5,68,38,17,29.83,29.74,20,3,20,0.00
2013-1-3,65.2,52.2,41.4,46.0,30.7,17.0,61,45,23,29.86,29.75,9,1,9,0.00
2013-1-4,67.0,53.7,42.8,36.0,24.1,14.0,56,34,15,29.95,29.86,10,2,10,0.00
2013-1-5,59.8,50.7,40.9,45.4,33.8,17.6,75,54,25,29.99,29.86,6,1,6,0.00
2013-1-6,54.9,49.7,43.6,47.4,43.8,39.3,90,80,67,29.89,29.71,8,1,8,0.01
2013-1-7,60.1,49.9,40.0,43.9,38.1,32.6,88,66,37,29.83,29.70,8,1,8,0.00
2013-1-8,71.3,53.3,42.5,48.9,40.2,31.4,79,63,30,29.79,29.72,9,1,9,0.00
2013-1-9,61.0,52.3,45.0,54.4,46.0,37.2,91,79,64,29.81,29.70,6,1,6,0.00
2013-1-10,57.1,50.7,42.3,48.2,37.1,24.9,90,62,31,29.81,29.62,11,2,11,0.00
2013-1-11,56.2,46.6,37.1,34.3,26.5,21.2,67,46,28,29.89,29.76,13,2,13,0.00
2013-1-12,54.9,44.9,35.6,31.7,26.7,21.2,68,50,28,29.86,29.77,10,2,10,0.00
2013-1-13,47.0,45.8,44.1,31.9,18.9,10.9,61,36,24,29.83,29.76,16,7,18,0.00
2013-1-14,53.5,46.2,38.7,30.0,12.0,4.0,46,26,14,30.04,29.82,20,4,20,0.00
2013-1-15,58.1,47.8,37.1,40.5,24.7,7.4,61,42,20,30.14,30.02,8,2,8,0.00
2013-1-16,67.9,51.8,39.1,35.3,30.2,26.7,64,46,24,30.04,29.83,11,1,11,0.00
2013-1-17,75.6,56.0,44.6,40.5,31.3,16.2,54,41,11,29.86,29.75,14,2,14,0.00
2013-1-18,75.4,63.4,47.7,42.3,23.7,10.8,46,24,12,29.83,29.73,12,3,12,0.00
2013-1-19,79.0,64.6,49.9,31.2,18.2,11.5,34,18,7,29.85,29.75,21,5,21,0.00
2013-1-20,78.8,61.4,48.2,31.4,21.0,8.3,37,23,8,29.83,29.70,13,2,13,0.00
2013-1-21,80.6,65.4,48.4,27.6,17.4,10.1,34,16,4,29.78,29.67,22,4,22,0.00
2013-1-22,80.1,65.1,52.2,45.2,19.8,6.9,41,19,7,29.76,29.69,14,3,14,0.00
2013-1-23,77.2,65.7,55.4,48.6,29.6,13.3,78,31,13,29.79,29.67,14,3,14,0.02
2013-1-24,63.2,58.1,53.5,56.7,53.8,48.2,93,86,76,29.86,29.76,16,4,16,0.28
2013-1-25,63.9,60.1,57.2,56.2,54.0,51.0,92,81,68,29.81,29.65,12,2,12,0.19
2013-1-26,62.6,57.2,54.9,59.1,54.5,51.7,95,91,81,29.67,29.57,8,2,8,0.04
2013-1-27,61.7,55.1,46.8,53.6,43.7,28.9,92,68,38,29.72,29.60,11,3,11,0.00
2013-1-28,61.4,51.8,43.2,41.3,32.4,26.3,64,48,33,29.87,29.72,10,3,10,0.00
2013-1-29,59.8,50.0,41.8,45.9,37.9,31.5,86,64,40,29.90,29.82,10,2,10,0.00
2013-1-30,62.5,51.6,42.1,47.4,41.3,36.6,85,69,50,30.01,29.89,6,1,6,0.00
2013-1-31,72.0,55.1,43.9,50.0,43.2,37.5,81,66,39,29.93,29.78,7,1,7,0.00
2013-2-1,67.5,55.5,46.6,54.3,46.9,39.6,86,74,38,29.85,29.78,9,1,9,0.00
2013-2-2,69.3,60.6,52.2,55.6,48.6,43.9,80,66,43,29.88,29.80,8,1,8,0.00
2013-2-3,62.8,55.6,48.4,55.1,49.7,43.6,90,81,66,29.83,29.68,5,1,5,0.00
2013-2-4,62.8,52.4,43.7,54.0,48.0,41.9,95,85,66,29.78,29.65,6,1,6,0.00
2013-2-5,58.3,53.4,47.5,52.6,49.7,44.2,92,87,79,29.78,29.67,7,2,7,0.00
2013-2-6,60.7,53.9,46.1,50.8,48.0,42.8,91,81,65,29.78,29.68,7,1,7,0.00
2013-2-7,58.9,51.7,43.2,50.8,45.3,40.2,91,79,66,29.81,29.65,8,2,8,0.00
2013-2-8,53.3,49.0,43.2,43.1,40.1,36.6,81,72,63,29.65,29.53,10,2,10,0.00
2013-2-9,58.7,48.1,37.4,44.3,37.8,31.7,82,69,46,29.77,29.61,9,2,9,0.00
2013-2-10,57.6,49.5,42.3,45.2,40.3,34.2,85,71,55,29.77,29.69,8,2,8,0.00
2013-2-11,61.9,50.0,39.6,45.6,38.5,33.2,85,66,43,29.92,29.74,8,1,8,0.00
2013-2-12,59.9,49.5,39.2,43.7,36.3,27.3,74,62,34,30.02,29.91,8,1,8,0.00
2013-2-13,58.9,48.7,41.4,49.5,41.7,32.4,82,77,70,29.94,29.81,5,1,5,0.00
2013-2-14,63.9,52.0,41.2,51.8,43.3,32.0,85,73,32,29.88,29.75,8,1,8,0.00
2013-2-15,81.4,68.0,47.2,40.3,28.5,15.2,77,28,11,29.86,29.78,26,6,26,0.00
2013-2-16,77.2,67.3,49.5,39.6,25.0,14.8,44,23,12,29.82,29.65,15,3,15,0.00
2013-2-17,63.9,54.0,42.8,51.9,41.6,25.8,84,64,40,29.70,29.60,8,2,8,0.00
2013-2-18,60.8,54.9,50.0,49.2,47.4,44.1,88,76,62,29.74,29.61,10,2,10,0.00
2013-2-19,56.5,51.4,46.4,48.3,45.1,34.8,89,79,61,29.65,29.40,10,2,10,0.18
2013-2-20,63.4,51.7,42.8,42.1,32.0,26.5,64,48,28,29.67,29.40,15,3,15,0.00
2013-2-21,59.0,49.5,39.1,44.9,36.2,28.7,69,61,43,29.78,29.65,13,2,13,0.00
2013-2-22,61.6,52.1,42.8,47.8,37.9,27.5,84,60,36,29.86,29.77,8,2,8,0.00
2013-2-23,62.3,51.9,41.0,51.8,43.2,33.8,82,72,60,29.83,29.56,9,2,9,0.00
2013-2-24,67.3,55.2,43.2,40.3,27.1,11.4,77,38,13,29.87,29.67,16,3,16,0.00
2013-2-25,62.5,52.3,43.0,47.3,34.5,17.9,80,53,24,29.90,29.74,9,2,9,0.00
2013-2-26,66.4,52.4,39.2,48.8,38.6,31.9,81,61,30,29.80,29.67,8,1,8,0.00
2013-2-27,72.5,60.2,45.9,33.8,23.1,13.9,62,26,12,29.96,29.78,12,2,12,0.00
2013-2-28,73.8,57.9,44.8,48.5,33.7,22.8,68,42,17,30.00,29.90,8,1,8,0.00
2013-3-1,84.6,64.9,51.7,49.0,34.4,21.3,65,35,11,29.97,29.83,20,2,20,0.00
2013-3-2,74.2,65.7,53.5,54.3,44.4,24.9,88,50,19,29.88,29.75,9,2,9,0.00
2013-3-3,67.7,58.0,52.2,55.3,51.2,46.0,88,79,56,29.79,29.65,9,2,9,0.00
2013-3-4,61.6,54.4,48.6,52.7,49.1,45.2,91,83,68,29.77,29.67,8,2,8,0.00
2013-3-5,60.3,53.3,47.7,51.5,48.2,44.2,91,83,71,29.80,29.70,9,1,9,0.00
2013-3-6,58.1,52.3,46.6,48.9,46.3,42.4,87,80,65,29.81,29.67,8,2,8,0.00
2013-3-7,60.8,53.8,48.6,51.3,47.2,44.6,91,79,60,29.68,29.50,10,2,10,0.61
2013-3-8,58.0,51.8,44.1,49.5,45.3,41.7,93,79,64,29.68,29.45,10,2,10,0.37
2013-3-9,66.2,54.4,43.0,50.8,43.0,35.0,83,66,39,29.87,29.68,11,2,11,0.00
2013-3-10,67.7,55.9,45.0,51.7,42.8,35.2,84,63,37,29.95,29.83,8,2,8,0.00
2013-3-11,65.7,54.4,43.0,52.7,45.4,37.4,84,73,51,29.85,29.71,7,1,7,0.00
2013-3-12,64.3,54.6,45.0,54.0,48.1,41.0,89,79,65,29.76,29.69,6,1,6,0.00
2013-3-13,64.6,54.0,45.7,55.6,49.7,43.7,94,86,70,29.78,29.70,7,1,7,0.00
2013-3-14,58.5,53.0,46.8,54.1,50.3,45.4,96,91,83,29.77,29.68,7,1,7,0.00
2013-3-15,59.9,54.4,50.8,56.5,51.7,48.5,96,91,82,29.70,29.60,6,1,6,0.00
2013-3-16,59.2,53.6,50.0,54.2,51.0,47.4,96,91,81,29.65,29.55,7,1,7,0.00
2013-3-17,64.4,55.1,49.0,56.2,51.2,46.4,96,87,72,29.68,29.59,7,2,7,0.01
2013-3-18,60.8,54.9,48.4,53.0,50.2,45.7,92,85,72,29.74,29.64,9,1,9,0.00
2013-3-19,61.9,55.8,49.0,55.4,51.5,46.2,92,86,76,29.78,29.68,8,2,8,0.00
2013-3-20,64.1,58.2,52.4,56.0,52.8,49.2,92,83,71,29.77,29.61,7,1,7,0.00
2013-3-21,69.3,58.7,50.2,57.4,51.9,46.7,90,79,64,29.62,29.46,9,2,9,0.00
2013-3-22,74.0,58.5,46.4,54.8,47.3,38.8,87,68,37,29.56,29.44,9,2,9,0.00
2013-3-23,65.3,56.1,45.9,55.3,46.6,30.1,87,71,48,29.69,29.55,9,2,9,0.00
2013-3-24,65.9,56.7,48.2,55.5,50.3,44.1,93,79,64,29.69,29.55,9,1,9,0.00
2013-3-25,65.2,56.0,47.2,56.0,50.4,42.9,90,82,69,29.65,29.56,8,2,8,0.00
2013-3-26,63.5,55.8,47.3,54.5,50.5,44.6,92,83,65,29.65,29.57,9,2,9,0.00
2013-3-27,66.6,57.3,50.4,54.8,51.6,47.8,92,82,65,29.71,29.59,9,2,9,0.00
2013-3-28,63.4,55.6,49.3,55.6,51.8,47.6,94,87,75,29.75,29.68,8,1,9,0.00
2013-3-29,65.2,56.8,49.9,57.7,52.8,47.3,95,87,74,29.78,29.70,10,2,10,0.00
2013-3-30,67.3,57.3,54.2,57.5,53.2,51.7,95,86,69,29.81,29.72,8,2,8,0.00
2013-3-31,63.9,58.2,54.0,59.8,54.6,51.0,95,88,76,29.79,29.71,9,2,9,0.12
2013-4-1,62.5,57.2,53.1,56.3,53.2,49.4,95,87,75,29.83,29.73,8,2,8,0.00
2013-4-2,69.8,57.8,49.5,57.0,52.3,46.8,92,82,61,29.75,29.65,9,2,9,0.00
2013-4-3,64.8,58.0,52.0,57.1,53.6,49.1,93,86,74,29.76,29.66,11,2,11,0.00
2013-4-4,64.3,58.0,54.0,57.3,54.2,51.7,94,87,74,29.78,29.66,10,2,10,0.00
2013-4-5,68.4,60.8,55.8,58.9,55.3,50.9,89,82,71,29.76,29.63,9,2,9,0.00
2013-4-6,76.1,61.5,54.4,60.5,54.6,51.0,91,79,57,29.75,29.59,11,2,11,0.00
2013-4-7,77.9,62.9,52.9,59.5,53.7,49.5,89,73,48,29.63,29.42,8,2,8,0.00
2013-4-8,72.4,60.5,53.1,52.0,42.4,34.5,86,54,28,29.50,29.35,19,4,19,0.00
2013-4-9,68.8,58.9,47.2,49.7,41.4,32.3,75,54,29,29.66,29.49,13,3,13,0.00
2013-4-10,77.8,61.6,48.6,50.3,41.6,31.9,78,50,26,29.78,29.63,9,2,9,0.00
2013-4-11,65.2,57.3,49.1,53.8,48.4,39.5,82,72,63,29.64,29.43,9,2,9,0.00
2013-4-12,63.2,57.4,52.7,54.2,51.6,48.1,91,81,72,29.54,29.46,10,2,10,0.00
2013-4-13,59.8,55.9,53.3,54.6,52.2,50.3,91,88,81,29.58,29.50,6,2,6,0.00
2013-4-14,62.1,57.1,54.2,54.8,52.4,50.6,92,85,73,29.55,29.48,6,1,6,0.00
2013-4-15,62.5,57.1,50.8,54.1,50.1,44.6,88,78,67,29.57,29.49,10,2,10,0.00
2013-4-16,63.7,55.9,45.4,49.7,42.0,23.0,86,63,25,29.68,29.52,11,2,11,0.00
2013-4-17,66.1,58.1,47.0,47.7,38.1,25.9,70,48,26,29.79,29.67,12,2,12,0.00
2013-4-18,75.2,63.3,49.9,44.9,28.6,15.7,63,31,11,29.86,29.78,16,3,16,0.00
2013-4-19,74.0,61.0,47.9,52.8,41.9,30.6,80,51,28,29.83,29.63,6,1,7,0.00
2013-4-20,75.1,61.8,51.5,56.4,50.4,40.4,83,67,41,29.65,29.54,9,2,9,0.00
2013-4-21,77.9,61.3,52.2,58.4,53.1,47.5,88,75,51,29.67,29.58,7,2,7,0.00
2013-4-22,66.2,60.3,56.9,57.0,53.8,51.8,87,79,68,29.67,29.55,9,2,9,0.02
2013-4-23,66.6,60.5,56.7,55.9,53.0,51.5,86,77,65,29.63,29.54,11,2,11,0.00
2013-4-24,59.2,57.5,55.8,55.6,53.1,50.7,90,85,79,29.65,29.55,6,1,6,0.01
2013-4-25,73.4,60.4,51.1,58.7,50.3,46.7,89,71,53,29.78,29.61,8,2,8,0.00
2013-4-26,71.5,59.3,50.4,58.6,51.9,45.5,87,77,57,29.82,29.76,7,2,7,0.00
2013-4-27,71.3,59.2,50.6,59.3,53.3,47.0,90,81,65,29.80,29.65,8,2,8,0.00
2013-4-28,64.1,58.0,54.2,57.1,53.9,50.7,91,87,78,29.66,29.52,8,2,8,0.00
2013-4-29,65.3,58.8,54.0,58.9,54.8,51.3,93,87,77,29.56,29.45,9,2,9,0.00
2013-4-30,65.0,59.4,56.2,56.7,54.7,51.5,92,85,73,29.54,29.47,7,1,7,0.02
2013-5-1,69.3,63.1,56.5,61.0,55.4,51.7,86,77,62,29.75,29.54,12,2,12,0.00
2013-5-2,89.1,66.4,50.4,59.7,47.7,14.8,91,61,5,29.77,29.67,26,3,26,0.00
2013-5-3,86.8,69.3,52.6,58.1,44.5,28.6,79,46,13,29.68,29.42,7,1,7,0.00
2013-5-4,70.7,63.0,54.2,59.1,54.6,47.5,84,74,65,29.49,29.39,11,2,11,0.00
2013-5-5,66.1,61.2,57.6,54.4,52.4,50.4,80,73,63,29.58,29.47,15,4,15,0.00
2013-5-6,66.2,61.0,56.2,58.9,55.4,53.5,93,82,70,29.67,29.52,8,2,8,0.20
2013-5-7,76.5,63.2,56.9,61.7,54.6,51.5,88,74,57,29.70,29.63,10,2,10,0.00
2013-5-8,75.8,62.5,55.3,61.7,54.5,51.1,87,76,56,29.76,29.70,10,2,10,0.00
2013-5-9,73.8,61.6,52.9,59.5,53.7,48.2,87,76,56,29.74,29.66,8,2,8,0.00
2013-5-10,79.6,62.8,54.4,63.7,56.0,50.2,90,79,53,29.76,29.65,8,2,8,0.00
2013-5-11,75.1,62.4,56.5,65.8,57.8,53.3,92,85,67,29.72,29.65,7,1,7,0.00
2013-5-12,79.2,65.3,56.2,68.2,59.2,54.2,94,81,63,29.70,29.56,7,1,7,0.00
2013-5-13,69.7,63.7,58.3,60.5,57.8,54.5,89,81,71,29.63,29.54,6,2,6,0.00
2013-5-14,69.7,60.5,54.4,59.8,54.4,51.2,92,81,69,29.64,29.55,8,2,8,0.00
2013-5-15,66.4,60.3,53.1,57.3,53.4,48.7,87,78,65,29.69,29.58,8,2,8,0.00
2013-5-16,66.2,59.8,52.9,57.7,53.9,48.5,88,81,73,29.64,29.54,6,2,6,0.00
2013-5-17,67.0,61.4,54.9,57.8,54.4,50.6,88,78,69,29.63,29.55,8,2,8,0.00
2013-5-18,68.6,61.6,52.9,57.7,53.0,47.8,85,74,60,29.69,29.60,8,2,8,0.00
2013-5-19,71.5,62.9,54.4,58.8,54.3,49.6,84,74,57,29.63,29.50,7,2,7,0.00
2013-5-20,69.8,63.5,55.1,60.8,56.1,49.8,85,77,60,29.60,29.51,8,1,8,0.00
2013-5-21,69.3,64.1,59.4,61.3,58.1,53.6,89,81,74,29.58,29.47,7,2,7,0.00
2013-5-22,67.3,61.1,54.2,56.3,52.9,49.2,86,75,64,29.49,29.41,7,2,7,0.00
2013-5-23,66.4,60.0,53.1,55.1,50.4,46.7,82,71,51,29.57,29.46,7,2,7,0.00
2013-5-24,67.3,60.1,51.5,56.4,51.4,45.5,83,73,61,29.64,29.54,6,2,6,0.00
2013-5-25,66.6,60.1,51.5,56.3,52.3,46.2,83,75,67,29.68,29.59,8,2,8,0.00
2013-5-26,67.7,61.1,52.4,56.5,53.1,47.9,85,76,60,29.69,29.61,7,2,7,0.00
2013-5-27,69.7,63.2,54.0,58.6,54.8,49.2,84,74,63,29.64,29.47,7,2,7,0.00
2013-5-28,72.0,66.0,57.6,60.5,56.8,52.3,84,73,61,29.50,29.36,9,2,9,0.00
2013-5-29,73.6,65.9,59.0,62.1,56.7,53.4,82,73,62,29.45,29.34,7,2,7,0.00
2013-5-30,70.9,64.5,57.1,60.3,55.9,51.8,83,74,63,29.50,29.39,8,2,8,0.00
2013-5-31,70.2,64.6,60.1,60.4,57.1,53.3,87,77,64,29.55,29.45,7,2,7,0.00
2013-6-1,67.5,63.7,60.1,60.8,58.3,54.0,88,83,77,29.49,29.37,6,2,6,0.00
2013-6-2,66.8,62.8,59.0,61.7,58.7,56.5,93,87,81,29.46,29.39,5,1,5,0.00
2013-6-3,68.8,63.3,59.2,60.9,58.3,55.1,93,84,71,29.52,29.42,7,1,7,0.00
2013-6-4,68.6,62.9,58.3,59.8,56.8,51.8,87,81,70,29.60,29.50,8,2,8,0.00
2013-6-5,65.5,60.5,55.1,57.6,54.7,50.0,86,81,74,29.63,29.55,9,2,9,0.00
2013-6-6,65.7,60.3,56.5,58.0,55.5,51.8,89,84,75,29.58,29.50,6,2,6,0.00
2013-6-7,66.2,61.0,58.0,58.9,56.6,54.7,91,86,76,29.54,29.41,6,1,6,0.00
2013-6-8,63.9,61.7,59.8,59.3,57.5,56.4,90,86,82,29.52,29.40,7,2,7,0.00
2013-6-9,63.7,61.8,59.8,60.6,57.7,56.1,93,87,81,29.55,29.49,8,1,8,0.00
2013-6-10,71.5,65.3,60.7,59.5,57.4,55.7,87,76,61,29.58,29.50,10,2,10,0.00
2013-6-11,69.8,63.8,58.0,62.4,58.3,54.0,90,82,71,29.56,29.50,6,1,6,0.01
2013-6-12,66.6,62.3,59.4,60.0,58.1,56.3,91,86,77,29.65,29.54,8,2,8,0.00
2013-6-13,67.3,62.7,58.3,60.6,58.2,53.2,93,86,74,29.63,29.50,8,1,8,0.00
2013-6-14,68.9,62.7,56.5,61.0,57.3,52.2,91,83,74,29.53,29.45,8,2,8,0.00
2013-6-15,68.2,62.4,59.2,60.4,57.9,55.6,93,85,74,29.58,29.49,9,2,9,0.00
2013-6-16,68.4,62.9,58.9,59.7,57.3,54.4,87,82,72,29.64,29.55,7,2,7,0.02
2013-6-17,71.3,63.1,55.4,62.2,57.4,51.5,93,82,71,29.60,29.47,8,2,8,0.00
2013-6-18,69.5,64.3,57.4,61.1,57.2,53.3,88,78,67,29.54,29.42,8,2,8,0.00
2013-6-19,73.4,65.7,56.3,60.1,56.0,51.2,85,71,54,29.49,29.37,7,2,7,0.00
2013-6-20,72.2,65.6,56.0,61.0,55.7,48.6,78,71,58,29.47,29.40,8,2,8,0.00
2013-6-21,70.9,65.2,56.2,60.7,55.7,49.5,81,72,56,29.52,29.43,7,1,7,0.00
2013-6-22,70.6,64.0,58.0,62.0,56.8,50.6,86,78,71,29.52,29.42,9,1,9,0.00
2013-6-23,68.4,63.4,58.3,60.3,57.5,53.2,87,81,70,29.49,29.40,8,1,8,0.00
2013-6-24,69.8,64.4,58.3,61.6,58.5,54.0,90,81,73,29.54,29.41,6,1,6,0.00
2013-6-25,66.8,63.1,59.6,61.6,58.8,56.9,91,86,80,29.61,29.50,7,1,7,0.00
2013-6-26,71.6,66.2,61.0,63.4,60.7,57.3,90,83,73,29.58,29.51,6,1,6,0.00
2013-6-27,75.1,67.5,63.0,66.4,62.2,58.6,90,83,73,29.63,29.55,6,1,6,0.00
2013-6-28,72.9,66.8,61.7,64.7,61.3,58.8,91,83,73,29.57,29.47,6,1,6,0.00
2013-6-29,77.4,69.8,61.4,65.4,62.1,58.1,90,77,65,29.47,29.32,5,1,6,0.00
2013-6-30,81.9,72.1,63.4,66.7,62.8,59.1,87,74,50,29.41,29.29,7,1,7,0.00
2013-7-1,75.1,69.5,65.9,66.6,64.3,62.2,91,84,73,29.48,29.37,8,1,8,0.00
2013-7-2,72.0,67.3,63.9,64.9,62.8,61.1,93,86,75,29.74,29.44,7,2,7,0.00
2013-7-3,69.5,64.7,62.3,63.5,61.4,60.1,93,89,79,29.64,29.51,7,1,8,0.00
2013-7-4,72.0,65.7,61.9,63.7,61.8,60.0,93,87,75,29.54,29.45,7,1,7,0.00
2013-7-5,70.9,66.4,64.4,64.5,61.8,60.6,88,85,77,29.56,29.47,7,1,7,0.00
2013-7-6,69.8,65.3,63.0,63.7,61.2,59.3,90,87,80,29.55,29.45,5,1,8,0.00
2013-7-7,69.1,64.8,61.6,62.4,60.2,57.7,90,85,78,29.56,29.47,8,2,8,0.00
2013-7-8,69.3,63.9,58.7,62.9,59.2,55.2,92,85,77,29.64,29.55,7,1,8,0.00
2013-7-9,72.0,64.7,59.4,63.9,59.7,56.6,93,84,71,29.70,29.61,7,1,7,0.00
2013-7-10,71.5,64.6,61.0,64.1,60.4,58.1,90,86,77,29.67,29.58,6,1,6,0.00
2013-7-11,73.1,67.1,63.0,66.1,62.7,59.8,90,86,77,29.67,29.58,6,1,6,0.05
2013-7-12,67.9,63.5,60.7,62.6,60.2,57.8,93,89,82,29.64,29.56,6,1,7,0.00
2013-7-13,68.2,63.5,60.5,62.7,59.6,57.3,93,87,80,29.66,29.55,6,2,6,0.00
2013-7-14,69.8,64.4,58.0,62.4,59.2,54.7,90,83,75,29.63,29.50,8,1,8,0.00
2013-7-15,70.7,64.3,59.0,62.0,58.0,54.5,88,80,70,29.57,29.50,8,1,8,0.00
2013-7-16,70.2,62.9,54.5,60.8,57.0,50.8,90,81,66,29.67,29.55,7,1,7,0.00
2013-7-17,70.4,60.5,55.6,61.9,55.5,51.5,88,84,69,29.72,29.64,6,1,6,0.00
2013-7-18,68.8,62.6,56.2,61.2,57.3,52.3,92,83,73,29.68,29.55,6,1,6,0.00
2013-7-19,68.0,62.4,56.5,60.2,57.0,52.6,89,83,71,29.60,29.51,5,1,5,0.00
2013-7-20,72.7,64.3,57.8,63.7,59.1,53.9,90,83,72,29.58,29.46,7,1,7,0.00
2013-7-21,70.4,64.6,61.7,63.7,60.9,57.9,91,88,79,29.62,29.48,5,1,5,0.00
2013-7-22,72.4,66.3,62.3,63.7,61.7,59.9,93,86,73,29.68,29.59,8,1,8,0.02
2013-7-23,69.7,65.2,61.7,62.2,60.4,59.1,92,85,75,29.72,29.62,7,2,8,0.00
2013-7-24,65.3,62.5,60.8,59.9,58.5,57.8,90,87,82,29.63,29.59,7,2,7,0.00
2013-7-25,68.0,64.4,60.8,61.9,59.3,58.0,90,83,79,29.68,29.62,7,2,7,0.00
2013-7-26,62.6,62.6,62.6,58.8,58.8,58.8,87,87,87,29.67,29.67,1,1,1,0.00
2013-7-30,67.5,63.2,59.9,60.0,57.9,55.3,90,83,74,29.82,29.75,7,2,7,0.06
2013-7-31,66.4,60.9,56.5,59.1,56.0,52.0,89,84,76,29.81,29.74,8,1,8,0.00
2013-8-2,69.7,65.7,60.1,61.2,59.6,56.0,90,81,73,29.75,29.62,3,0,3,0.00
2013-8-3,67.3,61.9,59.8,61.0,57.7,55.8,90,86,80,29.69,29.61,0,0,0,0.00
2013-8-4,87.1,64.9,58.5,62.6,57.5,55.0,89,78,44,29.70,29.61,0,0,0,0.00
2013-8-5,67.0,60.3,56.5,60.0,56.7,54.2,93,88,78,29.70,29.63,0,0,0,0.00
2013-8-6,67.1,62.0,59.4,60.0,57.9,56.5,90,86,77,29.73,29.64,0,0,0,0.00
2013-8-20,64.6,62.4,61.2,59.3,57.8,57.0,86,85,83,29.59,29.54,0,0,0,0.00
2013-8-21,68.9,64.6,58.0,61.6,59.0,54.5,90,82,74,29.61,29.52,0,0,0,0.00
2013-8-22,71.3,64.4,57.6,63.2,58.8,53.6,88,82,76,29.61,29.53,0,0,0,0.00
2013-8-23,71.3,63.1,57.2,62.6,57.7,52.7,87,83,71,29.55,29.42,0,0,0,0.00
2013-8-24,72.4,63.6,55.4,64.0,58.5,51.8,90,83,74,29.55,29.46,0,0,0,0.00
2013-8-25,71.1,64.9,58.0,64.3,60.4,55.6,94,85,77,29.60,29.51,0,0,0,0.00
2013-8-26,73.1,64.4,56.2,64.7,58.7,52.5,89,82,72,29.60,29.53,0,0,0,0.00
2013-8-27,63.5,63.5,63.4,59.7,59.7,59.5,87,87,87,29.49,29.48,0,0,0,0.00
2013-8-28,72.2,65.6,61.6,64.6,60.8,58.7,90,85,74,29.57,29.46,0,0,0,0.00
2013-8-29,75.4,68.3,61.2,65.1,61.9,58.3,90,80,67,29.63,29.54,0,0,0,0.00
2013-8-30,86.4,74.2,63.0,67.3,62.9,59.4,89,70,46,29.65,29.57,0,0,0,0.00
2013-8-31,84.8,79.2,72.4,68.0,64.7,58.9,76,62,45,29.64,29.55,0,0,0,0.00
2013-9-1,75.6,71.2,68.0,67.2,65.1,62.6,89,81,71,29.62,29.53,0,0,0,0.00
2013-9-2,75.6,69.8,65.2,68.3,64.9,61.6,90,85,76,29.86,29.46,2,0,4,0.00
2013-9-3,81.3,71.1,64.3,67.0,63.9,62.0,92,79,61,29.90,29.81,7,1,11,0.00
2013-9-4,78.5,69.4,63.3,65.0,62.4,60.0,91,79,61,29.91,29.83,8,2,16,0.00
2013-9-5,78.7,68.4,61.5,65.0,61.5,58.0,91,79,61,29.89,29.81,9,2,13,0.00
2013-9-6,80.9,67.8,60.3,64.0,61.0,57.0,91,80,57,29.87,29.78,8,2,13,0.00
2013-9-7,74.8,65.0,59.0,64.0,59.6,55.0,92,83,68,29.87,29.79,12,2,16,0.00
2013-9-8,71.4,63.4,59.2,62.0,59.5,58.0,97,87,68,29.85,29.75,8,2,14,0.00
2013-9-9,67.1,61.6,58.7,61.0,58.7,57.0,96,90,78,29.82,29.75,8,2,13,0.00
2013-9-10,72.1,64.2,59.3,61.0,58.7,57.0,95,83,66,29.93,29.81,7,2,12,0.00
2013-9-11,73.3,65.1,59.1,61.0,58.9,56.0,90,81,64,30.00,29.91,8,2,14,0.00
2013-9-12,76.1,68.3,60.4,62.0,60.4,57.0,92,77,57,29.93,29.82,10,2,14,0.00
2013-9-13,75.6,65.3,57.1,64.0,59.3,55.0,91,82,61,29.82,29.66,7,2,11,0.00
2013-9-14,76.8,66.0,58.1,64.0,59.3,55.0,92,80,59,29.72,29.64,8,2,12,0.00
2013-9-15,75.4,65.9,58.6,63.0,59.5,56.0,91,81,61,29.77,29.67,12,2,15,0.00
2013-9-16,72.5,63.6,56.5,63.0,58.4,54.0,91,84,70,29.84,29.73,11,2,15,0.00
2013-9-17,71.0,62.9,54.6,61.0,57.8,53.0,96,84,67,29.82,29.72,8,2,13,0.00
2013-9-18,72.1,63.8,57.7,62.0,58.7,55.0,93,84,66,29.82,29.74,8,2,14,0.00
2013-9-19,71.5,62.4,56.2,62.0,58.9,55.0,97,88,73,29.83,29.75,7,2,10,0.00
2013-9-20,68.7,64.8,62.3,62.0,60.3,59.0,92,85,78,29.89,29.81,7,1,11,0.00
2013-9-21,74.1,64.9,58.9,62.0,59.4,56.0,91,83,59,29.91,29.78,12,2,17,0.00
2013-9-22,74.5,64.2,53.8,60.0,55.5,51.0,93,75,45,29.85,29.75,7,2,12,0.00
2013-9-23,80.3,66.8,54.2,61.0,52.7,47.0,85,63,39,29.87,29.80,6,2,11,0.00
2013-9-24,80.2,66.5,55.6,63.0,52.2,43.0,89,62,36,29.93,29.82,8,2,11,0.00
2013-9-25,73.8,63.7,54.5,61.0,55.8,52.0,91,76,59,29.82,29.66,9,2,12,0.00
2013-9-26,74.0,63.4,53.5,57.0,51.5,41.0,86,67,39,29.88,29.71,12,3,23,0.00
2013-9-27,83.5,66.6,50.0,49.0,37.6,26.0,77,41,15,29.98,29.88,14,2,15,0.00
2013-9-28,81.7,66.9,54.8,52.0,38.3,28.0,60,37,16,30.02,29.96,8,2,11,0.00
2013-9-29,77.9,64.1,53.6,59.0,46.9,34.0,86,56,33,30.06,29.96,7,2,9,0.00
2013-9-30,75.3,63.7,52.8,59.0,52.5,42.0,85,68,49,29.97,29.83,6,1,9,0.00
2013-10-1,74.4,63.3,54.6,62.0,56.9,52.0,91,80,62,29.93,29.86,7,1,11,0.00
2013-10-2,73.8,63.6,57.8,61.0,58.2,54.0,93,83,62,29.96,29.88,10,2,15,0.00
2013-10-3,70.9,63.0,55.4,60.0,57.2,53.0,93,82,67,29.92,29.81,8,2,11,0.00
2013-10-4,85.1,71.4,55.8,56.0,32.7,14.0,94,41,7,30.02,29.87,23,7,31,0.00
2013-10-5,89.7,77.0,62.3,45.0,25.6,14.0,40,17,6,30.12,30.00,26,8,35,0.00
2013-10-6,89.6,73.4,58.8,55.0,32.2,17.0,70,25,7,30.06,29.95,10,3,19,0.00
2013-10-7,74.6,62.2,54.5,60.0,49.6,33.0,90,65,42,29.97,29.89,11,2,12,0.00
2013-10-8,69.2,60.1,50.8,58.0,53.2,46.0,92,79,65,29.93,29.81,9,2,12,0.00
2013-10-9,65.7,59.2,50.9,54.0,50.1,44.0,85,73,50,29.80,29.68,11,2,20,0.00
2013-10-10,66.9,57.4,47.4,53.0,48.2,43.0,85,72,58,30.01,29.78,14,2,17,0.00
2013-10-11,68.6,58.5,49.9,56.0,52.1,47.0,90,80,65,30.04,29.94,10,2,14,0.00
2013-10-12,70.5,59.2,48.8,58.0,53.4,46.0,92,82,61,29.97,29.89,8,2,12,0.00
2013-10-13,69.1,60.0,54.0,58.0,54.1,51.0,94,82,57,30.01,29.93,9,2,14,0.00
2013-10-14,74.2,61.2,49.7,60.0,52.1,42.0,91,73,54,30.02,29.90,6,2,16,0.00
2013-10-15,84.8,69.1,54.9,55.0,37.2,27.0,60,35,14,29.95,29.87,12,3,19,0.00
2013-10-16,84.6,73.9,58.6,49.0,27.6,19.0,56,19,9,30.05,29.94,21,7,25,0.00
2013-10-17,72.8,62.6,54.1,61.0,41.8,25.0,89,52,27,30.02,29.91,13,6,14,0.00
2013-10-18,71.5,62.3,53.6,59.0,47.8,32.0,84,60,33,30.00,29.93,12,4,12,0.00
2013-10-19,73.3,63.5,53.8,60.0,47.4,27.0,93,60,26,30.02,29.95,12,5,14,0.00
2013-10-20,63.9,57.9,50.3,58.0,50.9,39.0,94,78,58,29.98,29.89,9,4,14,0.00
2013-10-21,63.8,56.0,48.2,57.0,52.9,47.0,98,90,75,29.99,29.91,10,4,11,0.00
2013-10-22,61.5,55.2,48.9,57.0,52.7,47.0,96,91,82,30.01,29.90,11,4,12,0.00
2013-10-23,62.3,57.6,53.9,55.0,54.4,52.0,97,89,77,29.98,29.90,13,3,15,0.00
2013-10-24,70.4,61.6,59.1,63.6,55.3,54.0,86,80,64,30.05,29.50,11,2,15,0.00
2013-10-25,66.1,58.7,53.6,58.0,54.9,52.0,93,87,74,30.13,30.01,9,2,11,0.00
2013-10-26,68.7,58.7,49.4,60.0,54.2,48.0,97,86,53,30.09,29.96,7,1,15,0.01
2013-10-27,67.8,58.5,49.2,59.0,54.1,47.0,96,86,71,29.97,29.80,8,2,14,0.01
2013-10-28,66.1,59.6,54.7,55.0,50.7,47.0,84,73,58,29.92,29.78,14,4,17,0.00
2013-10-29,66.3,57.8,49.6,54.0,50.5,46.0,87,77,60,29.99,29.92,10,2,14,0.00
2013-10-30,71.9,57.9,47.5,55.0,48.7,45.0,90,73,45,30.06,29.98,10,2,16,0.00
2013-10-31,72.3,59.9,49.1,56.0,44.3,34.0,80,59,30,30.08,29.99,9,2,12,0.00
2013-11-1,77.9,61.9,49.0,50.0,40.7,34.0,65,47,24,30.09,29.93,6,2,10,0.00
2013-11-2,77.7,62.8,53.0,59.0,45.7,31.0,91,58,21,29.97,29.87,5,2,11,0.00
2013-11-3,68.7,58.3,50.6,57.0,52.1,48.0,94,81,63,29.91,29.82,7,2,14,0.00
2013-11-4,69.4,59.9,51.5,55.0,52.0,47.0,87,76,56,29.95,29.78,9,2,13,0.00
2013-11-5,76.0,60.2,46.5,47.0,33.6,23.0,82,42,15,30.15,29.95,12,2,20,0.00
2013-11-6,75.9,60.7,48.3,63.6,32.4,21.0,79,36,16,30.19,29.50,6,2,10,0.00
2013-11-7,79.6,64.8,53.2,47.0,31.4,25.0,54,30,16,30.11,29.98,7,2,11,0.00
2013-11-8,71.5,57.9,48.1,61.0,44.5,29.0,83,62,38,30.02,29.93,6,1,10,0.00
2013-11-9,70.2,57.7,49.1,57.0,49.3,40.0,88,75,38,30.07,29.97,7,2,10,0.00
2013-11-10,77.8,58.0,47.1,57.0,46.9,27.0,88,70,15,30.09,30.03,8,2,14,0.00
2013-11-11,72.2,58.3,46.6,63.6,47.8,37.0,89,70,39,30.12,29.50,5,1,10,0.00
2013-11-12,76.6,60.3,53.1,59.0,51.4,43.0,90,74,31,30.16,30.07,5,1,11,0.00
2013-11-13,84.8,65.4,51.2,58.0,44.6,37.0,75,50,19,30.07,29.89,5,2,11,0.00
2013-11-14,75.6,62.0,53.2,59.0,49.8,38.0,90,66,34,29.93,29.74,9,2,14,0.00
2013-11-15,66.9,59.0,52.2,57.0,53.8,49.0,96,83,65,29.75,29.67,10,3,12,0.00
2013-11-16,65.6,58.3,51.5,57.0,52.9,48.0,91,82,71,29.93,29.74,8,2,12,0.00
2013-11-17,70.4,57.9,50.9,63.6,51.2,48.0,91,79,57,30.09,29.50,7,2,11,0.00
2013-11-18,67.0,56.1,48.9,56.0,51.0,46.0,93,83,63,30.16,30.05,7,2,16,0.00
2013-11-19,63.6,57.7,52.4,54.0,52.0,49.0,90,82,65,30.09,29.94,4,1,12,0.00
2013-11-20,66.0,59.1,53.8,58.0,54.4,50.0,96,85,62,29.97,29.86,7,2,12,0.20
2013-11-21,65.5,59.5,55.6,59.0,55.6,46.0,97,87,70,29.87,29.81,8,2,14,0.23
2013-11-22,64.0,58.0,55.0,46.0,39.9,38.0,70,52,42,29.97,29.85,16,7,25,0.01
2013-11-23,66.4,57.9,51.6,41.0,39.5,38.0,65,51,36,30.09,29.95,14,5,23,0.00
2013-11-24,68.2,57.2,48.7,51.0,42.8,40.0,79,60,38,30.20,30.07,11,2,16,0.00
2013-11-25,71.2,58.8,46.8,50.0,41.6,36.0,79,55,31,30.24,30.14,6,2,15,0.00
2013-11-26,70.7,58.8,48.6,55.0,43.8,38.0,70,58,40,30.17,30.02,6,2,11,0.00
2013-11-27,73.6,62.3,50.9,56.0,44.5,36.0,93,57,27,30.03,29.86,10,3,18,0.00
2013-11-28,67.9,58.3,49.7,55.0,48.5,39.0,91,72,35,30.03,29.87,10,3,19,0.00
2013-11-29,70.0,60.8,53.0,53.0,47.9,44.0,82,64,41,30.17,30.03,13,3,21,0.06
2013-11-30,74.6,59.3,48.6,51.0,43.6,39.0,75,58,35,30.18,30.07,5,1,11,0.00
2013-12-1,78.8,63.8,53.2,51.0,38.5,30.0,70,42,21,30.22,30.10,5,2,10,0.00
2013-12-2,71.7,60.8,49.2,50.0,37.5,28.0,68,44,25,30.10,29.89,7,2,10,0.00
2013-12-3,63.5,54.8,46.2,55.0,45.9,36.0,86,72,50,29.88,29.72,8,2,17,0.00
2013-12-4,60.4,51.0,42.6,41.0,29.1,22.0,83,45,29,29.96,29.76,9,2,11,0.00
2013-12-5,60.2,50.0,41.5,38.0,28.0,22.0,66,44,28,30.09,29.94,9,3,14,0.00
2013-12-6,59.5,49.0,40.7,41.0,33.1,24.0,78,56,43,30.17,30.09,7,2,11,0.00
2013-12-7,58.5,46.7,38.6,49.0,36.3,27.0,93,70,40,30.12,29.96,13,3,21,0.33
2013-12-8,55.7,46.4,37.0,37.0,27.9,20.0,68,50,36,30.21,30.10,6,2,13,0.06
2013-12-9,59.5,49.8,38.8,20.0,9.9,-2.0,47,22,11,30.30,30.19,18,5,30,0.00
2013-12-10,64.8,52.2,38.6,42.0,19.1,1.0,70,29,11,30.27,30.10,10,2,14,0.00
2013-12-11,69.8,58.3,45.7,41.0,22.9,11.0,71,28,11,30.16,30.10,11,3,17,0.00
2013-12-12,64.6,54.3,43.5,51.0,34.0,16.0,72,49,18,30.21,30.12,8,2,10,0.00
2013-12-13,61.6,50.1,41.2,51.0,40.7,31.0,86,71,43,30.22,30.13,6,2,10,0.00
2013-12-14,73.9,56.0,41.4,45.0,31.1,23.0,86,43,16,30.29,30.19,12,2,21,0.00
2013-12-15,77.1,61.8,47.5,41.0,28.9,22.0,45,30,18,30.26,30.09,6,2,9,0.00
2013-12-16,80.0,67.5,57.0,46.0,31.0,22.0,53,27,16,30.12,30.03,7,2,9,0.00
2013-12-17,78.3,66.1,55.4,54.0,38.7,23.0,78,40,15,30.11,29.96,11,2,16,0.00
2013-12-18,70.0,58.4,54.4,56.0,51.5,29.0,91,80,22,29.98,29.84,6,2,14,0.00
2013-12-19,59.6,53.1,44.6,50.0,45.2,39.0,87,75,55,29.83,29.68,8,2,17,0.00
2013-12-20,66.0,52.1,42.4,47.0,38.6,34.0,82,62,37,29.93,29.79,8,2,12,0.00
2013-12-21,62.7,52.0,44.3,49.0,41.3,33.0,91,68,46,30.08,29.91,8,2,12,0.00
2013-12-22,62.6,52.2,44.5,52.0,45.9,41.0,92,80,50,30.26,30.08,7,2,11,0.00
2013-12-23,73.7,55.3,44.4,54.0,43.3,37.0,90,67,34,30.31,30.20,4,1,11,0.00
2013-12-24,78.6,60.8,46.3,52.0,39.6,33.0,69,49,24,30.20,30.07,7,2,13,0.00
2013-12-25,79.6,68.6,52.3,40.0,27.5,19.0,38,22,11,30.18,30.11,17,4,25,0.00
2013-12-26,80.6,60.7,47.7,37.0,22.7,9.0,34,25,7,30.16,30.06,16,2,22,0.00
2013-12-27,82.2,61.4,48.4,35.0,23.7,15.0,39,25,10,30.15,30.02,9,1,11,0.00
2013-12-28,69.2,56.9,46.1,53.0,37.5,23.0,83,51,20,30.01,29.91,5,2,10,0.00
2013-12-29,76.9,58.3,42.4,39.0,27.8,15.0,77,37,11,30.14,30.00,9,2,15,0.00
2013-12-30,72.1,58.8,46.6,36.0,23.2,11.0,44,27,12,30.25,30.13,10,2,12,0.00
2013-12-31,65.4,52.6,42.5,52.0,38.5,23.0,81,60,38,30.20,30.08,5,1,9,0.00
2014-1-1,67.4,53.2,41.4,55.0,44.5,32.0,89,73,56,30.14,30.04,9,2,11,0.00
2014-1-2,75.4,62.3,48.9,47.0,35.6,26.0,64,39,23,30.10,29.98,7,2,10,0.00